Historical Weather Data

Kanab, UT VWS

Date ET
(Inches)
Rain
(Inches)
Temp °F
Humidity
Avg
Wind MPH
Avg
Solar Wm2
Avg
High Ave Low
03/01/2019 12:00 am 0.096 0.00 58.0 45.7 36.0 63 2.8 189
03/02/2019 12:00 am 0.033 0.50 50.7 44.6 39.0 70 4.1 19
03/03/2019 12:00 am 0.081 0.01 51.0 44.7 40.0 76 4.9 157
03/04/2019 12:00 am 0.092 0.00 55.0 45.7 38.0 69 3.0 207
03/05/2019 12:00 am 0.083 0.03 57.3 45.5 35.0 58 2.2 176
03/06/2019 12:00 am 0.046 0.38 54.0 46.8 42.0 74 6.2 31
03/07/2019 12:00 am 0.090 0.01 52.0 45.4 41.0 70 5.4 174
03/08/2019 12:00 am 0.043 0.05 43.0 38.1 33.0 79 7.1 77
03/09/2019 12:00 am 0.094 0.00 48.0 38.0 29.0 64 4.1 214
03/10/2019 12:00 am 0.045 0.00 49.0 40.2 30.0 59 1.2 92
03/11/2019 12:00 am 0.067 0.02 55.0 43.9 33.0 58 2.4 113
03/12/2019 12:00 am 0.047 0.15 53.0 44.7 38.3 72 2.6 73
03/13/2019 12:00 am 0.095 0.08 41.0 37.4 33.0 56 6.4 233
03/14/2019 12:00 am 0.099 0.00 48.0 37.0 28.0 53 3.0 254
03/15/2019 12:00 am 0.111 0.00 52.0 39.2 29.0 52 4.4 260
03/16/2019 12:00 am 0.122 0.00 57.0 43.2 31.5 47 3.7 265
03/17/2019 12:00 am 0.133 0.00 61.0 46.8 32.0 43 3.0 266
03/18/2019 12:00 am 0.132 0.00 64.0 49.3 37.0 43 2.6 264
03/19/2019 12:00 am 0.133 0.00 66.0 51.7 37.0 43 2.6 241
03/20/2019 12:00 am 0.148 0.10 60.0 51.2 41.0 42 5.0 243
03/21/2019 12:00 am 0.055 0.20 51.0 43.1 37.3 68 2.8 104
03/22/2019 12:00 am 0.072 0.00 51.0 40.3 32.0 68 2.7 175
03/23/2019 12:00 am 0.115 0.00 57.0 44.4 32.0 58 2.3 238
03/24/2019 12:00 am 0.135 0.00 60.0 47.3 37.0 53 3.2 273
03/25/2019 12:00 am 0.146 0.00 67.0 48.7 34.0 41 4.0 279
03/26/2019 12:00 am 0.167 0.00 67.0 53.6 40.0 36 3.7 275
03/27/2019 12:00 am 0.192 0.00 68.0 54.4 42.0 32 5.1 282
03/28/2019 12:00 am 0.178 0.00 65.0 52.4 41.0 31 4.7 286
03/29/2019 12:00 am 0.151 0.00 58.0 48.3 38.0 39 2.7 293
03/30/2019 12:00 am 0.139 0.00 56.0 44.6 33.0 40 3.3 290
03/31/2019 12:00 am 0.144 0.00 58.0 45.6 35.0 43 3.8 296